Time,TemperatureF,DewpointF,PressureIn,WindDirection,WindDirectionDegrees,WindSpeedMPH,WindSpeedGustMPH,Humidity,HourlyPrecipIn,Conditions,Clouds,dailyrainin,SoftwareType,DateUTC
2013-03-16 00:10:00,65.5,45.8,29.96,SSW,212,1.0,15.0,49,0.00,CLR,,0.00,WeatherDisplay:10.37,2013-03-16 04:10:00,
2013-03-16 00:20:00,65.2,45.0,29.96,SSW,209,5.0,12.0,48,0.00,CLR,,0.00,WeatherDisplay:10.37,2013-03-16 04:20:00,
2013-03-16 00:30:00,65.0,44.8,29.96,SW,221,6.0,12.0,48,0.00,CLR,,0.00,WeatherDisplay:10.37,2013-03-16 04:30:00,
2013-03-16 00:40:00,65.0,44.8,29.96,SSW,212,6.0,12.0,48,0.00,CLR,,0.00,WeatherDisplay:10.37,2013-03-16 04:40:00,
2013-03-16 00:50:00,65.0,44.8,29.95,SSW,209,7.0,17.0,48,0.00,CLR,,0.00,WeatherDisplay:10.37,2013-03-16 04:50:00,
2013-03-16 01:00:00,64.7,44.5,29.95,SW,222,3.0,12.0,48,0.00,CLR,,0.00,WeatherDisplay:10.37,2013-03-16 05:00:00,
2013-03-16 01:10:00,64.2,44.6,29.95,SW,224,7.0,13.0,49,0.00,CLR,,0.00,WeatherDisplay:10.37,2013-03-16 05:10:00,
2013-03-16 01:20:00,64.0,44.4,29.95,WSW,245,7.0,13.0,49,0.00,CLR,,0.00,WeatherDisplay:10.37,2013-03-16 05:20:00,
2013-03-16 01:30:00,63.8,44.3,29.95,SW,217,7.0,12.0,49,0.00,CLR,,0.00,WeatherDisplay:10.37,2013-03-16 05:30:00,
2013-03-16 01:40:00,63.8,44.3,29.95,SW,224,7.0,12.0,49,0.00,CLR,,0.00,WeatherDisplay:10.37,2013-03-16 05:40:00,
2013-03-16 01:50:00,63.8,44.3,29.95,SW,219,6.0,16.0,49,0.00,CLR,,0.00,WeatherDisplay:10.37,2013-03-16 05:50:00,
2013-03-16 02:00:00,63.6,44.1,29.94,SW,232,3.0,12.0,49,0.00,CLR,,0.00,WeatherDisplay:10.37,2013-03-16 06:00:00,
2013-03-16 02:10:00,63.5,44.0,29.94,SSW,204,3.0,12.0,49,0.00,CLR,,0.00,WeatherDisplay:10.37,2013-03-16 06:10:00,
2013-03-16 02:20:00,63.5,44.0,29.94,SW,217,2.0,14.0,49,0.00,CLR,,0.00,WeatherDisplay:10.37,2013-03-16 06:20:00,
2013-03-16 02:30:00,63.4,43.9,29.95,SW,230,3.0,22.0,49,0.00,CLR,,0.00,WeatherDisplay:10.37,2013-03-16 06:30:00,
2013-03-16 02:40:00,63.6,44.1,29.95,SSW,206,6.0,22.0,49,0.00,CLR,,0.00,WeatherDisplay:10.37,2013-03-16 06:40:00,
2013-03-16 02:50:00,63.6,43.5,29.95,SW,215,7.0,14.0,48,0.00,CLR,,0.00,WeatherDisplay:10.37,2013-03-16 06:50:00,
2013-03-16 03:00:00,63.7,43.6,29.94,SSW,213,9.0,18.0,48,0.00,CLR,,0.00,WeatherDisplay:10.37,2013-03-16 07:00:00,
2013-03-16 03:10:00,63.7,43.6,29.94,SW,215,8.0,20.0,48,0.00,CLR,,0.00,WeatherDisplay:10.37,2013-03-16 07:10:00,
2013-03-16 03:20:00,63.6,43.5,29.94,SSW,209,3.0,12.0,48,0.00,CLR,,0.00,WeatherDisplay:10.37,2013-03-16 07:20:00,
2013-03-16 03:30:00,63.4,43.4,29.94,SW,225,3.0,14.0,48,0.00,CLR,,0.00,WeatherDisplay:10.37,2013-03-16 07:30:00,
2013-03-16 03:40:00,63.2,43.7,29.94,SW,223,5.0,12.0,49,0.00,CLR,,0.00,WeatherDisplay:10.37,2013-03-16 07:40:00,
2013-03-16 03:50:00,63.1,43.6,29.94,SSW,209,7.0,14.0,49,0.00,CLR,,0.00,WeatherDisplay:10.37,2013-03-16 07:50:00,
2013-03-16 04:00:00,62.9,43.4,29.94,WSW,249,5.0,13.0,49,0.00,CLR,,0.00,WeatherDisplay:10.37,2013-03-16 08:00:00,
2013-03-16 04:10:00,62.8,43.3,29.93,SW,233,3.0,13.0,49,0.00,CLR,,0.00,WeatherDisplay:10.37,2013-03-16 08:10:00,
2013-03-16 04:20:00,62.7,43.3,29.93,SW,226,5.0,20.0,49,0.00,CLR,,0.00,WeatherDisplay:10.37,2013-03-16 08:20:00,
2013-03-16 04:30:00,62.7,43.3,29.92,SW,229,7.0,20.0,49,0.00,CLR,,0.00,WeatherDisplay:10.37,2013-03-16 08:30:00,
2013-03-16 04:40:00,62.5,43.1,29.93,WSW,240,6.0,13.0,49,0.00,CLR,,0.00,WeatherDisplay:10.37,2013-03-16 08:40:00,
2013-03-16 04:50:00,62.5,43.1,29.92,SW,232,7.0,16.0,49,0.00,CLR,,0.00,WeatherDisplay:10.37,2013-03-16 08:50:00,
2013-03-16 05:00:00,62.4,43.5,29.92,WSW,238,5.0,12.0,50,0.00,CLR,,0.00,WeatherDisplay:10.37,2013-03-16 09:00:00,
2013-03-16 05:10:00,62.3,43.4,29.92,WSW,249,9.0,16.0,50,0.00,CLR,,0.00,WeatherDisplay:10.37,2013-03-16 09:10:00,
2013-03-16 05:20:00,62.1,43.2,29.92,SW,226,6.0,14.0,50,0.00,CLR,,0.00,WeatherDisplay:10.37,2013-03-16 09:20:00,
2013-03-16 05:30:00,61.6,43.3,29.92,SW,215,3.0,13.0,51,0.00,CLR,,0.00,WeatherDisplay:10.37,2013-03-16 09:30:00,
2013-03-16 05:40:00,61.0,43.7,29.93,WSW,241,5.0,9.0,53,0.00,CLR,,0.00,WeatherDisplay:10.37,2013-03-16 09:40:00,
2013-03-16 05:50:00,60.4,43.7,29.93,SW,225,3.0,9.0,54,0.00,CLR,,0.00,WeatherDisplay:10.37,2013-03-16 09:50:00,
2013-03-16 06:00:00,60.0,43.8,29.93,SSW,208,5.0,8.0,55,0.00,CLR,,0.00,WeatherDisplay:10.37,2013-03-16 10:00:00,
2013-03-16 06:10:00,59.7,43.5,29.94,SW,214,1.0,9.0,55,0.00,CLR,,0.00,WeatherDisplay:10.37,2013-03-16 10:10:00,
2013-03-16 06:20:00,59.4,43.7,29.94,SSW,213,5.0,7.0,56,0.00,CLR,,0.00,WeatherDisplay:10.37,2013-03-16 10:20:00,
2013-03-16 06:30:00,59.1,43.9,29.94,SW,214,6.0,9.0,57,0.00,CLR,,0.00,WeatherDisplay:10.37,2013-03-16 10:30:00,
2013-03-16 06:40:00,58.7,44.0,29.94,SSW,211,1.0,10.0,58,0.00,CLR,,0.00,WeatherDisplay:10.37,2013-03-16 10:40:00,
2013-03-16 06:50:00,58.2,43.9,29.95,SW,223,2.0,6.0,59,0.00,CLR,,0.00,WeatherDisplay:10.37,2013-03-16 10:50:00,
2013-03-16 07:00:00,57.9,43.7,29.95,SSW,202,2.0,8.0,59,0.00,CLR,,0.00,WeatherDisplay:10.37,2013-03-16 11:00:00,
2013-03-16 07:10:00,57.7,43.9,29.95,SSW,210,2.0,7.0,60,0.00,CLR,,0.00,WeatherDisplay:10.37,2013-03-16 11:10:00,
2013-03-16 07:20:00,57.6,43.8,29.95,SW,220,0.0,8.0,60,0.00,CLR,,0.00,WeatherDisplay:10.37,2013-03-16 11:20:00,
2013-03-16 07:30:00,57.3,44.0,29.95,SSW,193,1.0,6.0,61,0.00,CLR,,0.00,WeatherDisplay:10.37,2013-03-16 11:30:00,
2013-03-16 07:40:00,56.8,43.9,29.95,SW,215,1.0,6.0,62,0.00,CLR,,0.00,WeatherDisplay:10.37,2013-03-16 11:40:00,
2013-03-16 07:50:00,55.9,43.5,29.95,SW,215,0.0,3.0,63,0.00,CLR,,0.00,WeatherDisplay:10.37,2013-03-16 11:50:00,
2013-03-16 08:00:00,55.4,43.8,29.95,SW,223,3.0,6.0,65,0.00,CLR,,0.00,WeatherDisplay:10.37,2013-03-16 12:00:00,
2013-03-16 08:10:00,55.3,43.7,29.96,SW,234,1.0,3.0,65,0.00,CLR,,0.00,WeatherDisplay:10.37,2013-03-16 12:10:00,
2013-03-16 08:20:00,56.1,44.1,29.96,SW,214,1.0,5.0,64,0.00,CLR,,0.00,WeatherDisplay:10.37,2013-03-16 12:20:00,
2013-03-16 08:30:00,56.8,44.3,29.96,South,184,3.0,17.0,63,0.00,CLR,,0.00,WeatherDisplay:10.37,2013-03-16 12:30:00,
2013-03-16 08:40:00,57.5,44.1,29.96,SSW,213,5.0,20.0,61,0.00,CLR,,0.00,WeatherDisplay:10.37,2013-03-16 12:40:00,
2013-03-16 08:50:00,57.8,44.4,29.96,SW,224,6.0,14.0,61,0.00,CLR,,0.00,WeatherDisplay:10.37,2013-03-16 12:50:00,
2013-03-16 09:00:00,58.0,44.2,29.96,SW,228,12.0,17.0,60,0.00,CLR,,0.00,WeatherDisplay:10.37,2013-03-16 13:00:00,
2013-03-16 09:10:00,58.0,44.2,29.96,SW,228,9.0,15.0,60,0.00,CLR,,0.00,WeatherDisplay:10.37,2013-03-16 13:10:00,
2013-03-16 09:20:00,58.2,44.4,29.96,SW,219,10.0,17.0,60,0.00,CLR,,0.00,WeatherDisplay:10.37,2013-03-16 13:20:00,
2013-03-16 09:30:00,58.6,44.7,29.96,SW,227,5.0,21.0,60,0.00,CLR,,0.00,WeatherDisplay:10.37,2013-03-16 13:30:00,
2013-03-16 09:40:00,58.9,45.0,29.96,SSW,210,6.0,13.0,60,0.00,CLR,,0.00,WeatherDisplay:10.37,2013-03-16 13:40:00,
2013-03-16 09:50:00,59.2,44.9,29.96,SW,230,9.0,18.0,59,0.00,CLR,,0.00,WeatherDisplay:10.37,2013-03-16 13:50:00,
2013-03-16 10:00:00,59.6,45.3,29.95,SW,218,7.0,12.0,59,0.00,CLR,,0.00,WeatherDisplay:10.37,2013-03-16 14:00:00,
2013-03-16 10:10:00,60.3,45.4,29.95,SSW,211,6.0,12.0,58,0.00,CLR,,0.00,WeatherDisplay:10.37,2013-03-16 14:10:00,
2013-03-16 10:20:00,60.9,46.0,29.95,SW,224,3.0,10.0,58,0.00,CLR,,0.00,WeatherDisplay:10.37,2013-03-16 14:20:00,
2013-03-16 10:30:00,61.7,44.9,29.95,SW,221,7.0,15.0,54,0.00,CLR,,0.00,WeatherDisplay:10.37,2013-03-16 14:30:00,
2013-03-16 10:40:00,62.3,45.4,29.95,SW,234,3.0,13.0,54,0.00,CLR,,0.00,WeatherDisplay:10.37,2013-03-16 14:40:00,
2013-03-16 10:50:00,62.9,45.5,29.95,SW,225,9.0,13.0,53,0.00,CLR,,0.00,WeatherDisplay:10.37,2013-03-16 14:50:00,
2013-03-16 11:00:00,63.4,45.5,29.94,SW,215,8.0,14.0,52,0.00,CLR,,0.00,WeatherDisplay:10.37,2013-03-16 15:00:00,
2013-03-16 11:10:00,63.6,45.6,29.94,SW,220,6.0,16.0,52,0.00,CLR,,0.00,WeatherDisplay:10.37,2013-03-16 15:10:00,
2013-03-16 11:20:00,64.2,46.2,29.94,SW,227,5.0,16.0,52,0.00,CLR,,0.00,WeatherDisplay:10.37,2013-03-16 15:20:00,
2013-03-16 11:30:00,65.1,46.5,29.93,SSW,209,5.0,12.0,51,0.00,CLR,,0.00,WeatherDisplay:10.37,2013-03-16 15:30:00,
2013-03-16 11:40:00,66.2,47.0,29.93,SSW,199,6.0,10.0,50,0.00,CLR,,0.00,WeatherDisplay:10.37,2013-03-16 15:40:00,
2013-03-16 11:50:00,66.7,46.9,29.92,South,181,6.0,12.0,49,0.00,CLR,,0.00,WeatherDisplay:10.37,2013-03-16 15:50:00,
2013-03-16 12:00:00,67.4,47.5,29.92,SSW,198,6.0,13.0,49,0.00,CLR,,0.00,WeatherDisplay:10.37,2013-03-16 16:00:00,
2013-03-16 12:10:00,67.9,48.0,29.92,SW,224,9.0,16.0,49,0.00,CLR,,0.00,WeatherDisplay:10.37,2013-03-16 16:10:00,
2013-03-16 12:20:00,68.5,48.0,29.92,SW,233,9.0,14.0,48,0.00,CLR,,0.00,WeatherDisplay:10.37,2013-03-16 16:20:00,
2013-03-16 12:30:00,68.5,48.6,29.92,SW,232,9.0,20.0,49,0.00,CLR,,0.00,WeatherDisplay:10.37,2013-03-16 16:30:00,
2013-03-16 12:40:00,69.0,48.5,29.91,WSW,237,6.0,16.0,48,0.00,CLR,,0.00,WeatherDisplay:10.37,2013-03-16 16:40:00,
2013-03-16 12:50:00,69.5,48.4,29.90,WSW,241,9.0,22.0,47,0.00,CLR,,0.00,WeatherDisplay:10.37,2013-03-16 16:50:00,
2013-03-16 13:00:00,69.9,49.3,29.90,WSW,239,8.0,17.0,48,0.00,CLR,,0.00,WeatherDisplay:10.37,2013-03-16 17:00:00,
2013-03-16 13:10:00,70.7,48.9,29.90,SW,236,6.0,26.0,46,0.00,CLR,,0.00,WeatherDisplay:10.37,2013-03-16 17:10:00,
2013-03-16 13:20:00,71.2,48.8,29.89,WNW,285,10.0,21.0,45,0.00,CLR,,0.00,WeatherDisplay:10.37,2013-03-16 17:20:00,
2013-03-16 13:30:00,71.7,48.6,29.88,WSW,256,13.0,21.0,44,0.00,CLR,,0.00,WeatherDisplay:10.37,2013-03-16 17:30:00,
2013-03-16 13:40:00,71.8,48.7,29.88,WSW,249,14.0,22.0,44,0.00,CLR,,0.00,WeatherDisplay:10.37,2013-03-16 17:40:00,
2013-03-16 13:50:00,71.9,48.8,29.88,West,261,9.0,25.0,44,0.00,CLR,,0.00,WeatherDisplay:10.37,2013-03-16 17:50:00,
2013-03-16 14:00:00,72.8,48.4,29.88,West,259,8.0,20.0,42,0.00,CLR,,0.00,WeatherDisplay:10.37,2013-03-16 18:00:00,
2013-03-16 14:10:00,72.8,48.3,29.87,WSW,256,9.0,21.0,42,0.00,CLR,,0.00,WeatherDisplay:10.37,2013-03-16 18:10:00,
2013-03-16 14:20:00,73.1,48.0,29.87,WSW,258,9.0,20.0,41,0.00,CLR,,0.00,WeatherDisplay:10.37,2013-03-16 18:20:00,
2013-03-16 14:30:00,73.4,47.6,29.87,SW,222,10.0,20.0,40,0.00,CLR,,0.00,WeatherDisplay:10.37,2013-03-16 18:30:00,
2013-03-16 14:40:00,73.4,46.9,29.87,WSW,255,8.0,17.0,39,0.00,CLR,,0.00,WeatherDisplay:10.37,2013-03-16 18:40:00,
2013-03-16 14:50:00,73.9,47.4,29.86,SW,234,9.0,18.0,39,0.00,CLR,,0.00,WeatherDisplay:10.37,2013-03-16 18:50:00,
2013-03-16 15:00:00,74.2,47.7,29.86,WSW,249,5.0,17.0,39,0.00,CLR,,0.00,WeatherDisplay:10.37,2013-03-16 19:00:00,
2013-03-16 15:10:00,74.4,46.4,29.85,SW,235,9.0,20.0,37,0.00,CLR,,0.00,WeatherDisplay:10.37,2013-03-16 19:10:00,
2013-03-16 15:20:00,74.6,45.9,29.85,SW,231,10.0,21.0,36,0.00,CLR,,0.00,WeatherDisplay:10.37,2013-03-16 19:20:00,
2013-03-16 15:30:00,74.1,45.4,29.84,WSW,249,10.0,25.0,36,0.00,CLR,,0.00,WeatherDisplay:10.37,2013-03-16 19:30:00,
2013-03-16 15:40:00,74.8,46.1,29.84,WSW,242,12.0,17.0,36,0.00,CLR,,0.00,WeatherDisplay:10.37,2013-03-16 19:40:00,
2013-03-16 15:50:00,75.4,47.3,29.84,SW,227,8.0,16.0,37,0.00,CLR,,0.00,WeatherDisplay:10.37,2013-03-16 19:50:00,
2013-03-16 16:00:00,75.7,46.1,29.84,SW,229,9.0,13.0,35,0.00,CLR,,0.00,WeatherDisplay:10.37,2013-03-16 20:00:00,
2013-03-16 16:10:00,75.8,46.2,29.84,WSW,249,7.0,20.0,35,0.00,CLR,,0.00,WeatherDisplay:10.37,2013-03-16 20:10:00,
2013-03-16 16:20:00,75.4,46.6,29.84,SW,221,8.0,20.0,36,0.00,CLR,,0.00,WeatherDisplay:10.37,2013-03-16 20:20:00,
2013-03-16 16:30:00,75.6,45.2,29.84,WSW,244,7.0,17.0,34,0.00,CLR,,0.00,WeatherDisplay:10.37,2013-03-16 20:30:00,
2013-03-16 16:40:00,75.3,45.0,29.84,WSW,247,10.0,18.0,34,0.00,CLR,,0.00,WeatherDisplay:10.37,2013-03-16 20:40:00,
2013-03-16 16:50:00,75.4,45.8,29.84,SW,234,5.0,20.0,35,0.00,CLR,,0.00,WeatherDisplay:10.37,2013-03-16 20:50:00,
2013-03-16 17:00:00,76.0,46.4,29.84,WSW,247,5.0,18.0,35,0.00,CLR,,0.00,WeatherDisplay:10.37,2013-03-16 21:00:00,
2013-03-16 17:10:00,75.9,46.3,29.84,WSW,248,7.0,20.0,35,0.00,CLR,,0.00,WeatherDisplay:10.37,2013-03-16 21:10:00,
2013-03-16 17:20:00,75.7,46.1,29.84,SW,233,10.0,18.0,35,0.00,CLR,,0.00,WeatherDisplay:10.37,2013-03-16 21:20:00,
2013-03-16 17:30:00,75.7,46.1,29.84,WSW,246,5.0,14.0,35,0.00,CLR,,0.00,WeatherDisplay:10.37,2013-03-16 21:30:00,
2013-03-16 17:40:00,76.0,46.3,29.84,WSW,245,7.0,15.0,35,0.00,CLR,,0.00,WeatherDisplay:10.37,2013-03-16 21:40:00,
2013-03-16 17:50:00,75.8,46.2,29.84,SW,218,12.0,18.0,35,0.00,CLR,,0.00,WeatherDisplay:10.37,2013-03-16 21:50:00,
2013-03-16 18:00:00,75.7,46.8,29.84,SW,236,6.0,13.0,36,0.00,CLR,,0.00,WeatherDisplay:10.37,2013-03-16 22:00:00,
2013-03-16 18:10:00,75.6,46.0,29.83,WSW,246,10.0,15.0,35,0.00,CLR,,0.00,WeatherDisplay:10.37,2013-03-16 22:10:00,
2013-03-16 18:20:00,75.1,46.3,29.83,WSW,240,7.0,16.0,36,0.00,CLR,,0.00,WeatherDisplay:10.37,2013-03-16 22:20:00,
2013-03-16 18:30:00,74.9,46.1,29.83,SW,228,5.0,14.0,36,0.00,CLR,,0.00,WeatherDisplay:10.37,2013-03-16 22:30:00,
2013-03-16 18:40:00,74.6,45.9,29.83,SW,229,9.0,17.0,36,0.00,CLR,,0.00,WeatherDisplay:10.37,2013-03-16 22:40:00,
2013-03-16 18:50:00,74.4,45.7,29.84,WSW,243,13.0,20.0,36,0.00,CLR,,0.00,WeatherDisplay:10.37,2013-03-16 22:50:00,
2013-03-16 19:00:00,73.8,45.9,29.84,WSW,239,6.0,17.0,37,0.00,CLR,,0.00,WeatherDisplay:10.37,2013-03-16 23:00:00,
2013-03-16 19:10:00,73.4,46.2,29.84,WSW,240,6.0,12.0,38,0.00,CLR,,0.00,WeatherDisplay:10.37,2013-03-16 23:10:00,
2013-03-16 19:20:00,73.2,46.1,29.84,SW,231,8.0,16.0,38,0.00,CLR,,0.00,WeatherDisplay:10.37,2013-03-16 23:20:00,
2013-03-16 19:30:00,73.0,45.9,29.85,WSW,237,5.0,12.0,38,0.00,CLR,,0.00,WeatherDisplay:10.37,2013-03-16 23:30:00,
2013-03-16 19:40:00,72.7,45.6,29.86,WSW,250,2.0,9.0,38,0.00,CLR,,0.00,WeatherDisplay:10.37,2013-03-16 23:40:00,
2013-03-16 19:50:00,72.4,46.0,29.86,WSW,246,3.0,8.0,39,0.00,CLR,,0.00,WeatherDisplay:10.37,2013-03-16 23:50:00,
2013-03-16 20:00:00,72.0,46.4,29.86,SW,229,2.0,8.0,40,0.00,CLR,,0.00,WeatherDisplay:10.37,2013-03-17 00:00:00,
2013-03-16 20:10:00,71.7,46.1,29.87,SW,229,2.0,9.0,40,0.00,CLR,,0.00,WeatherDisplay:10.37,2013-03-17 00:10:00,
2013-03-16 20:20:00,71.3,46.4,29.87,SW,221,0.0,7.0,41,0.00,CLR,,0.00,WeatherDisplay:10.37,2013-03-17 00:20:00,
2013-03-16 20:30:00,70.8,45.9,29.87,SSW,207,1.0,7.0,41,0.00,CLR,,0.00,WeatherDisplay:10.37,2013-03-17 00:30:00,
2013-03-16 20:40:00,70.3,46.1,29.88,SW,218,1.0,4.0,42,0.00,CLR,,0.00,WeatherDisplay:10.37,2013-03-17 00:40:00,
2013-03-16 20:50:00,69.9,46.4,29.88,SW,218,2.0,5.0,43,0.00,CLR,,0.00,WeatherDisplay:10.37,2013-03-17 00:50:00,
2013-03-16 21:00:00,69.7,46.2,29.89,WSW,238,3.0,5.0,43,0.00,CLR,,0.00,WeatherDisplay:10.37,2013-03-17 01:00:00,
2013-03-16 21:10:00,69.5,46.0,29.89,SW,220,3.0,8.0,43,0.00,CLR,,0.00,WeatherDisplay:10.37,2013-03-17 01:10:00,
2013-03-16 21:20:00,69.0,46.2,29.89,SW,222,3.0,7.0,44,0.00,CLR,,0.00,WeatherDisplay:10.37,2013-03-17 01:20:00,
2013-03-16 21:30:00,69.0,46.2,29.89,WSW,243,3.0,10.0,44,0.00,CLR,,0.00,WeatherDisplay:10.37,2013-03-17 01:30:00,
2013-03-16 21:40:00,68.8,46.6,29.89,SW,235,3.0,8.0,45,0.00,CLR,,0.00,WeatherDisplay:10.37,2013-03-17 01:40:00,
2013-03-16 21:50:00,68.6,46.4,29.89,WSW,237,1.0,10.0,45,0.00,CLR,,0.00,WeatherDisplay:10.37,2013-03-17 01:50:00,
2013-03-16 22:00:00,68.3,46.7,29.90,West,260,0.0,4.0,46,0.00,CLR,,0.00,WeatherDisplay:10.37,2013-03-17 02:00:00,
2013-03-16 22:10:00,68.0,46.4,29.90,SW,222,1.0,5.0,46,0.00,CLR,,0.00,WeatherDisplay:10.37,2013-03-17 02:10:00,
2013-03-16 22:20:00,67.8,46.8,29.90,South,190,0.0,4.0,47,0.00,CLR,,0.00,WeatherDisplay:10.37,2013-03-17 02:20:00,
2013-03-16 22:30:00,67.6,46.6,29.90,South,186,0.0,4.0,47,0.00,CLR,,0.00,WeatherDisplay:10.37,2013-03-17 02:30:00,
2013-03-16 22:40:00,66.9,46.5,29.91,South,184,0.0,1.0,48,0.00,CLR,,0.00,WeatherDisplay:10.37,2013-03-17 02:40:00,
2013-03-16 22:50:00,66.3,47.1,29.91,SSW,195,0.0,4.0,50,0.00,CLR,,0.00,WeatherDisplay:10.37,2013-03-17 02:50:00,
2013-03-16 23:00:00,65.8,47.2,29.92,SSW,205,0.0,4.0,51,0.00,CLR,,0.00,WeatherDisplay:10.37,2013-03-17 03:00:00,
2013-03-16 23:10:00,65.3,46.7,29.92,SSW,205,0.0,1.0,51,0.00,SCT,,0.00,WeatherDisplay:10.37,2013-03-17 03:10:00,
2013-03-16 23:20:00,64.8,46.7,29.92,SSW,205,0.0,1.0,52,0.00,SCT,,0.00,WeatherDisplay:10.37,2013-03-17 03:20:00,
2013-03-16 23:30:00,64.5,47.0,29.92,SW,229,0.0,6.0,53,0.00,SCT,,0.00,WeatherDisplay:10.37,2013-03-17 03:30:00,
2013-03-16 23:40:00,64.0,47.0,29.92,SW,232,0.0,2.0,54,0.00,OVC,,0.00,WeatherDisplay:10.37,2013-03-17 03:40:00,
2013-03-16 23:50:00,63.5,47.0,29.92,SW,227,5.0,9.0,55,0.00,OVC,,0.00,WeatherDisplay:10.37,2013-03-17 03:50:00,